Regional Weather Roundup
Issued by NWS

Home | Current Version | Previous Version | Graphics & Text | Print | Product List | Glossary Off
Versions: 1 2 3 4 5 6 7 8 9 10 11 12 13 14 15 16 17 18 19 20 21 22 23 24 25 26 27 28 29 30 31 32 33 34 35 36 37 38 39 40 41 42 43 44 45 46 47 48 49 50

000
ASUS43 KMKX 260700
RWRWI

WISCONSIN REGIONAL WEATHER ROUNDUP
NATIONAL WEATHER SERVICE MILWAUKEE/SULLIVAN WI
200 AM CDT THU MAY 26 2016

NOTE: "FAIR" INDICATES FEW OR NO CLOUDS BELOW 12,000 FEET WITH NO
SIGNIFICANT WEATHER AND/OR OBSTRUCTIONS TO VISIBILITY.

WIZ001-002-006>008-014>016-023>028-260800-
NORTHWEST WISCONSIN

CITY           SKY/WX    TMP DP  RH WIND       PRES   REMARKS
SUPERIOR ARPT  CLOUDY    43  43  99 E6        29.86F FOG
ASHLAND        FOG       48  48 100 CALM      29.84F VSB 1/2
HAYWARD        FOG       52  51  97 N5        29.82F VSB 1/2
SIREN          FOG       58  57  97 NE3       29.82F VSB 3/4
CUMBERLAND     FOG       55  55 100 E3        29.81F VSB<1/4
RICE LAKE      FOG       58  57  96 CALM      29.83F VSB<1/4
CHETEK         CLEAR     57  57 100 SE6       29.82F FOG
LADYSMITH      FOG       59  58  97 S6        29.85F VSB 1/4
EAU CLAIRE     FOG       57  57 100 CALM      29.80F VSB 1/4
MENOMONIE      FOG       61  61  99 CALM      29.81F VSB 1/4
NEW RICHMOND     N/A     62  62 100 CALM      29.80F FOG
OSCEOLA        CLOUDY    63  63 100 SE7       29.82F
$$

WIZ003>005-009-010-017-018-260800-
NORTH CENTRAL WISCONSIN

CITY           SKY/WX    TMP DP  RH WIND       PRES   REMARKS
MANITOWISH WTR NOT AVBL
ARBOR VITAE    CLOUDY    62  61  96 W5        29.82F
WOODRUFF       CLOUDY    62  61  96 W5        29.82F
RHINELANDER    CLOUDY    62  60  93 SW8       29.83F
EAGLE RIVER    DRIZZLE   60  60  99 S5        29.82F
LAND O LAKES   LGT RAIN  59  58  98 CALM      29.84S
PHILLIPS       CLOUDY    60  60 100 SW3       29.82F
TOMAHAWK       CLOUDY    61  60  96 CALM      29.84F
MEDFORD        FOG       61  61 100 S6        29.84F VSB 3/4
MERRILL        CLOUDY    63  63 100 SW6       29.85F FOG
$$

WIZ029-030-035-036-043>047-260800-
CENTRAL WISCONSIN

CITY           SKY/WX    TMP DP  RH WIND       PRES   REMARKS
WAUSAU         CLOUDY    63  32  31 SW8       29.83F FOG
MOSINEE        CLOUDY    61  61 100 SW6       29.87F FOG
MARSHFIELD     FOG       63  61  93 S3        29.84F VSB 1/4
STEVENS POINT  CLOUDY    58  58 100 SW3       29.86F FOG
WAUPACA        FOG       60  59  97 CALM      29.87F VSB<1/4
WAUTOMA        NOT AVBL
WISC RAPIDS    FOG       62  60  93 SW3       29.86F VSB 3/4
CAMP DOUGLAS   FOG       61  61 100 NE1       29.86F VSB 1/2
$$

WIZ011>013-019>022-031-037>040-048>050-260800-
NORTHEAST WISCONSIN

CITY           SKY/WX    TMP DP  RH WIND       PRES   REMARKS
ANTIGO         FOG       59  59 100 SW8       29.86S VSB 1/2
SHAWANO        CLOUDY    61  60  95 SW3       29.85F FOG
OCONTO         CLEAR    N/A N/A N/A CALM      29.84F
STURGEON BAY   NOT AVBL
GREEN BAY      CLEAR     60  59  96 S10       29.85F FOG
MANITOWOC      MOCLDY    57  55  94 S9        29.88F FOG
APPLETON       PTCLDY    59  59 100 S6        29.85F FOG
CLINTONVILLE   CLOUDY    59  59 100 SW3       29.86S FOG
OSHKOSH        CLEAR     62  60  93 S10       29.86F FOG
$$

WIZ032>034-041-042-053>061-260800-
SOUTHWEST WISCONSIN

CITY           SKY/WX    TMP DP  RH WIND       PRES   REMARKS
LA CROSSE      PTCLDY    64  63  96 SE7       29.82F
SPARTA         FOG       57  57 100 CALM      29.86F VSB 3/4
VIROQUA        CLEAR     67  61  83 S5        29.87F
BOSCOBEL       FOG       60  59  96 CALM      29.86F VSB 1/4
PRAIRIE DU CHI PTCLDY    63  60  90 CALM      29.85F
PLATTEVILLE    CLOUDY    68  59  73 SE3       29.88F
$$

WIZ056-057-062-063-064-067-068-260800-
SOUTH CENTRAL WISCONSIN

CITY           SKY/WX    TMP DP  RH WIND       PRES   REMARKS
REEDSBURG      PTCLDY    63  63 100 CALM      29.87S FOG
BARABOO/DELLS  FOG       63  61  94 S3        29.87F VSB<1/4
LONE ROCK      NOT AVBL
MINERAL POINT  CLOUDY    68  57  68 CALM      29.89F
MADISON        CLEAR     67  63  87 S9        29.87F
MIDDLETON      CLEAR     67  63  84 SW3       29.89S
WATERTOWN      CLEAR     64  64 100 CALM      29.89S
MONROE         PTCLDY    64  61  88 S7        29.90S
JANESVILLE     CLEAR     66  64  94 S3        29.90S
$$

WIZ051-052-058>065-066-070>072-260800-
SOUTHEAST WISCONSIN

CITY           SKY/WX    TMP DP  RH WIND       PRES   REMARKS
MILWAUKEE      CLEAR     64  62  93 S8        29.90S
WAUKESHA       CLOUDY    61  61 100 S6        29.91S FOG
MILWAUKEE/TIMM CLEAR     59  55  88 CALM      29.90F FOG
RACINE         CLEAR     65  62  90 S5        29.92S
BURLINGTON     CLEAR     63  63  99 S3        29.91S
KENOSHA        CLEAR     66  63  90 S10       29.91S
FOND DU LAC    CLEAR     63  61  93 S9        29.87F FOG
SHEBOYGAN      MOCLDY    56  55  97 S6        29.88F FOG
WEST BEND      FOG       61  59  94 CALM      29.89F VSB 1/4
JUNEAU         FOG       61  61  99 SE5       29.90F VSB<1/4
$$

LSZ147-162-260800-
LAKE SUPERIOR

STATION/POSITION TIME  TEMP    WIND        PRES    WAVE
                       AIR SEA DIR/SP/G            HT/PER
                 (UTC) (F)     (DEG/KT/KT) (MB)    (FT/S)
W MID LAKE BUOY  0550   41 38  100/ 10/ 12 1011.4F   2/ 5
DEVILS ISLAND    0600   42      30/  6/  7 1011.4F
SAXON HARBOR     0600   45     310/  3/  5 1010.5S
$$

LMZ867-665-643>646-260800-
LAKE MICHIGAN

STATION/POSITION TIME  TEMP    WIND        PRES    WAVE
                       AIR SEA DIR/SP/G            HT/PER
                 (UTC) (F)     (DEG/KT/KT) (MB)    (FT/S)
CHAMBERS ISLAND  0600   60     120/  5/  9 1010.8F
N MID LAKE BUOY  0550   53 45  150/ 10/ 12 1011.9F   1
NORTHPORT PIER   0600   55     140/  4/  6 1011.5F
SISTER BAY       0634   57     150/  9/ 12   N/A
ALGOMA LAKESHORE 0602             CALM       N/A
KEWAUNEE LAKESHO 0600   51     160/  1/  2 1011.0F
SHEBOYGAN LAKESH 0600   51     190/  5/  5 1013.0F
PORT WASHINGTON  0600   53      50/  2/  3 1013.2F
S MID LAKE BUOY  0550   55 49  150/ 14/ 14 1012.4F   1/ 3
KENOSHA   LAKESH 0600   63     180/  7/  8 1012.9S
$$

TC  - TEMPERATURE IN CELSIUS
VSB - VISIBILITY IN STATUTE MILES
WCI - WIND CHILL INDEX
HX  - HEAT INDEX





USA.gov is the U.S. government's official web portal to all federal, state and local government web resources and services.